This demonstration page uses our WeatherBlox Daily Observations layout. Learn more.

Left ArrowRight Arrow

39.92423, -83.80882

Hourly Observations for February 4, 2022

Temp ( °F °C ) Dew Point ( °F °C ) Humidity (%) Winds ( mph kmh ) Pressure ( in mb ) Visibility ( mi km ) Precip ( " mm )
12:56 am 00:56 Cloudy with Light Snow 19 -7.2 17 -8.3 92 92 N 16 26 30.16 1021 8 13 0.00 0.00
1:56 am 01:56 Cloudy with Light Snow 18 -7.8 17 -8.3 96 96 N 16 26 30.17 1022 9 14 0.00 0.00
2:56 am 02:56 Cloudy with Light Snow 18 -7.8 16 -8.9 92 92 N 18 30 30.17 1022 6 10 0.00 0.00
3:56 am 03:56 Cloudy with Light Snow 18 -7.8 16 -8.9 92 92 N 13 20 30.19 1022 7 11 0.00 0.00
4:56 am 04:56 Cloudy with Light Snow 17 -8.3 16 -8.9 95 95 N 12 19 30.21 1023 6 10 0.00 0.00
5:56 am 05:56 Cloudy with Light Snow 18 -7.8 16 -8.9 92 92 N 14 22 30.22 1023 8 13 0.00 0.00
6:27 am 06:27 Cloudy with Light Snow 18 -8 16 -9 93 93 N 13 20 30.25 1024 9 14 0.00 0.00
6:34 am 06:34 Cloudy with Light Snow 18 -8 16 -9 93 93 N 15 24 30.25 1024 9 14 0.00 0.00
6:46 am 06:46 Cloudy with Light Snow 18 -8 16 -9 93 93 N 14 22 30.25 1024 7 11 0.00 0.00
6:56 am 06:56 Cloudy with Light Snow 17 -8.3 16 -8.9 95 95 N 14 22 30.23 1024 4 6 0.00 0.00
7:56 am 07:56 Cloudy with Light Snow 18 -7.8 16 -8.9 92 92 NNW 14 22 30.25 1025 7 11 0.00 0.00
8:56 am 08:56 Cloudy with Light Snow 17 -8.3 16 -8.9 95 95 N 14 22 30.27 1025 5 8 0.00 0.00
9:47 am 09:47 Cloudy with Light Snow 16 -9 14 -10 93 93 NNW 14 22 30.33 1027 8 13 0.00 0.00
9:56 am 09:56 Cloudy with Light Snow 16 -8.9 14 -10 92 92 NNW 13 20 30.29 1026 6 10 0.00 0.00
10:56 am 10:56 Cloudy with Light Snow 16 -8.9 14 -10 92 92 NNW 8 13 30.30 1026 6 10 0.00 0.00
11:56 am 11:56 Cloudy 19 -7.2 15 -9.4 84 84 NW 10 17 30.27 1025 9 14 0.00 0.00
12:56 pm 12:56 Cloudy 19 -7.2 15 -9.4 84 84 NW 10 17 30.28 1025 10 16 0.00 0.00
1:56 pm 13:56 Cloudy 19 -7.2 16 -8.9 88 88 NW 7 11 30.27 1025 9 14 0.00 0.00
2:56 pm 14:56 Cloudy 20 -6.7 16 -8.9 85 85 WNW 9 15 30.28 1025 10 16 0.00 0.00
3:56 pm 15:56 Cloudy 19 -7.2 15 -9.4 84 84 WNW 9 15 30.29 1026 10 16 0.00 0.00
4:56 pm 16:56 Cloudy 19 -7.2 15 -9.4 84 84 WNW 9 15 30.31 1026 10 16 0.00 0.00
5:56 pm 17:56 Cloudy 17 -8.3 14 -10 88 88 WNW 9 15 30.32 1027 10 16 0.00 0.00
6:56 pm 18:56 Cloudy 17 -8.3 13 -10.6 84 84 WNW 8 13 30.34 1027 10 16 0.00 0.00
7:56 pm 19:56 Clear 12 -11.1 10 -12.2 92 92 WNW 7 11 30.34 1027 10 16 0.00 0.00
8:56 pm 20:56 Mostly Clear 11 -11.7 9 -12.8 92 92 WNW 5 7 30.34 1028 10 16 0.00 0.00
9:56 pm 21:56 Clear 10 -12.2 10 -12.2 100 100 W 6 9 30.35 1028 10 16 0.00 0.00
10:56 pm 22:56 Cloudy 12 -11.1 12 -11.1 100 100 WSW 6 9 30.36 1028 10 16 0.00 0.00
11:56 pm 23:56 Cloudy with Light Snow 13 -10.6 12 -11.1 96 96 W 8 13 30.37 1028 9 14 0.00 0.00

Powered by AerisWeather